This is the latest recevied weather packets stored in our database for station/object KB4JAC-13. If no packets are shown the sender has not sent any weather packets the latest 10 day(s).
| Time | Temp. | Humidity | Pressure | Rain* | Wind** | Luminosity | Snow |
|---|---|---|---|---|---|---|---|
| 1788390038 | 34.44° C | 55% | 991.1 hPa | 0 mm | - | - | - |
| 1788389437 | 34.44° C | 54% | 991.3 hPa | 0 mm | - | - | - |
| 1788388836 | 34.44° C | 53% | 991.3 hPa | 0 mm | - | - | - |
| 1788388235 | 35.56° C | 52% | 991.3 hPa | 0 mm | - | - | - |
| 1788387634 | 37.22° C | 49% | 991.2 hPa | 0 mm | - | - | - |
| 1788387033 | 37.22° C | 46% | 991.3 hPa | 0 mm | - | - | - |
| 1788386432 | 37.22° C | 46% | 991.3 hPa | 0 mm | - | - | - |
| 1788385831 | 37.78° C | 46% | 991.3 hPa | 0 mm | - | - | - |
| 1788385231 | 38.33° C | 44% | 991.3 hPa | 0 mm | - | - | - |
| 1788384630 | 38.33° C | 46% | 991.4 hPa | 0 mm | - | - | - |
| 1788384029 | 37.78° C | 43% | 991.4 hPa | 0 mm | - | - | - |
| 1788383428 | 38.33° C | 44% | 991.4 hPa | 0 mm | - | - | - |
| 1788382827 | 38.89° C | 42% | 991.5 hPa | 0 mm | - | - | - |
| 1788382226 | 38.89° C | 43% | 991.6 hPa | 0 mm | - | - | - |
| 1788381625 | 38.89° C | 41% | 991.7 hPa | 0 mm | - | - | - |
| 1788381024 | 38.33° C | 43% | 991.6 hPa | 0 mm | - | - | - |
| 1788380423 | 38.89° C | 44% | 991.8 hPa | 0 mm | - | - | - |
| 1788379823 | 38.33° C | 45% | 991.8 hPa | 0 mm | - | - | - |
| 1788379222 | 37.78° C | 43% | 991.9 hPa | 0 mm | - | - | - |
| 1788378621 | 38.89° C | 42% | 992.1 hPa | 0 mm | - | - | - |
| 1788378020 | 38.33° C | 43% | 992.3 hPa | 0 mm | - | - | - |
| 1788377435 | 37.78° C | 45% | 992.4 hPa | 0 mm | - | - | - |
| 1788376818 | 37.78° C | 46% | 992.3 hPa | 0 mm | - | - | - |
| 1788376217 | 37.78° C | 45% | 992.5 hPa | 0 mm | - | - | - |
| 1788375617 | 37.22° C | 45% | 992.8 hPa | 0 mm | - | - | - |
* Rain since midnight (hover to see other rain measurements)
** Current wind speed in m/s (hover to see current wind gust speed)